SCP
0 0 0 -0 0 -0 0 0 0 -0 0 0 0 0 0 0 -0 -0 0 0 0 0 0 0 1 0 0 0 0 0 0 0 0 0 1 0 0 0 0 0 0 0 0 0
0 0 -0 0 0 0 0 0 0 0 0 0 0 0 0 -0 0 0 0 0 0 0 0 0 0 0 -0 -0 -0 0 0 0 0 0 1 0 0 0 0 0 0 0 0 0
-0 -0 0 0 0 0 0 0 0 0 0 0 0 0 0 0 0 -0 0 0 0 0 0 0 0 -0 -0 0 0 -0 -0 -0 0 0 1 0 0 0 0 0 0 0 0 0
0 -0 0 -0 -0 0 0 -0 -0 0 0 0 0 0 0 0 0 0 0 0 0 0 0 0 0 0 0 0 0 0 0 -0 -0 0 0 0 0 0 0 0 0 0 0 0
-0 0 0 -0 0 0 0 -0 0 0 0 0 0 0 0 0 0 0 0 0 0 0 0 0 0 0 0 0 0 0 0 0 0 0 0 0 0 0 0 0 0 0 0 0
0 -0 0 0 0 0 0 0 0 0 0 0 0 0 0 0 0 0 0 0 0 0 -0 0 0 0 0 0 0 0 0 0 0 0 0 0 0 0 0 0 0 0 0 0
0 0 0 -0 0 0 0 0 0 0 0 0 0 0 0 0 0 0 0 0 -0 -0 -0 0 0 0 0 0 0 0 0 0 0 0 0 0 0 0 0 0 0 0 0 0
0 0 0 0 -0 -0 0 -0 0 0 0 0 0 0 0 0 0 0 0 0 0 0 0 0 0 0 0 0 0 0 0 0 0 0 0 0 0 0 0 0 0 0 0 0
0 0 0 0 0 0 0 0 0 0 0 0 0 0 0 0 0 0 0 0 0 0 0 0 0 0 0 0 0 0 0 0 0 0 0 0 0 0 0 0 0 0 0 0
0 0 0 0 0 0 0 0 0 0 0 0 0 0 0 0 0 0 0 0 0 0 0 0 0 0 0 0 0 0 0 0 0 0 0 0 0 0 0 0 0 0 0 0
0 0 0 0 0 0 0 0 0 0 0 0 0 0 0 0 0 0 0 0 0 0 0 0 0 0 0 0 0 0 0 0 0 0 0 0 0 0 0 0 0 0 0 0
0 0 0 0 0 0 0 0 0 0 0 0 0 0 0 0 0 -0 0 0 0 0 0 0 0 0 0 0 0 0 0 0 0 0 0 0 0 0 0 0 0 0 0 0
0 0 0 0 0 0 0 0 0 0 0 0 0 0 0 0 -0 0 0 0 0 0 0 0 0 0 0 0 0 0 0 0 0 0 0 0 0 0 0 0 0 0 0 0
-0 0 0 0 0 0 0 0 0 0 0 0 0 0 0 0 0 0 0 0 0 0 0 0 0 0 0 0 0 0 0 0 0 0 0 0 0 0 0 0 0 0 0 0
0 0 0 0 0 0 0 0 0 0 0 0 0 0 0 0 0 0 0 0 0 0 0 0 0 0 0 0 0 0 0 0 0 0 0 0 0 0 0 0 0 0 0 0
0 0 0 0 0 0 0 0 0 0 0 0 0 0 0 0 0 0 0 0 0 0 0 0 0 0 0 0 0 0 0 0 0 0 0 0 0 0 0 0 0 0 0 0
0 0 0 0 0 0 0 0 0 0 0 0 0 0 0 0 0 0 0 0 0 0 0 0 0 0 0 0 0 0 0 0 0 0 0 0 0 0 0 0 0 0 0 0
0 0 0 0 0 0 0 0 0 0 0 0 0 0 0 0 0 0 0 0 0 0 0 0 0 0 0 0 0 0 0 0 0 0 0 0 0 0 0 0 0 0 0 0
0 0 0 0 0 0 0 0 0 0 0 0 0 0 0 0 0 0 0 0 0 0 0 0 0 0 0 0 0 0 0 0 0 0 0 0 0 0 0 0 0 0 0 0
0 0 0 0 0 0 0 0 0 0 0 0 0 0 0 0 0 0 0 0 0 0 0 0 0 0 0 0 0 0 0 0 0 0 0 0 0 0 0 0 0 0 0 0
0 0 0 0 0 0 0 0 0 0 0 0 0 0 0 0 0 0 0 0 0 0 0 0 0 0 0 0 0 0 0 0 0 0 0 0 0 0 0 0 0 0 0 0
0 0 0 0 0 0 0 0 0 0 0 0 0 0 0 0 0 0 0 0 0 0 0 0 0 0 0 0 0 0 0 0 0 0 0 0 0 0 0 0 0 0 0 0
0 0 0 0 0 0 0 0 0 0 0 0 0 0 0 0 0 0 0 0 0 0 0 0 0 0 0 0 0 0 0 0 0 0 0 0 0 0 0 0 0 0 0 0
0 0 0 0 0 0 0 0 0 0 0 0 0 -0 -0 0 0 0 0 0 0 0 0 0 0 0 0 0 0 0 0 0 0 0 0 0 0 0 0 0 0 0 0 0
0 0 0 0 0 0 0 0 0 0 0 0 0 0 -0 0 0 0 0 0 0 0 0 0 0 0 0 0 0 0 0 0 0 0 0 0 0 0 0 0 0 0 0 0
0 0 0 0 0 0 0 0 0 0 -0 -0 -0 0 0 0 0 0 0 0 0 0 0 0 0 0 0 0 0 0 0 0 0 0 0 0 0 0 0 0 0 0 0 0
Wind_Speed_500mb
9 12 8 16 3 14 7 7 4 3 10 19 11 15 21 23 14 11 22 27 16 18 8 9 14 15 10 15 8 12 3 2 6 12 19 20 16 26 35 35 37 40 45 44
15 10 17 1 9 6 6 7 9 11 22 18 3 12 6 15 7 2 23 23 14 10 17 16 14 15 6 19 22 6 14 14 15 24 23 21 18 28 31 36 39 41 42 43
7 21 11 3 9 9 3 10 2 11 9 5 10 21 20 14 15 9 15 7 21 32 28 19 12 4 4 11 20 7 26 23 20 26 25 22 26 32 36 41 37 30 27 28
9 17 4 13 7 8 12 13 6 7 10 5 5 2 14 20 22 26 43 20 27 44 20 8 4 11 20 17 21 3 10 27 26 25 25 25 30 36 38 31 24 27 33 34
14 10 6 17 2 6 7 3 27 10 12 13 17 11 15 14 21 16 39 35 19 15 12 6 4 13 13 23 20 22 29 26 22 26 28 29 30 39 49 47 40 43 35 40
8 3 10 4 5 8 5 9 16 9 5 11 12 8 11 11 9 6 15 31 22 19 13 5 7 13 18 22 20 20 16 21 25 29 35 38 40 42 39 32 29 33 39 42
13 11 13 7 12 16 17 15 7 10 11 6 11 14 8 13 11 3 13 27 30 25 18 18 14 7 10 19 20 25 19 24 23 25 30 26 28 28 30 35 39 41 44 46
9 14 15 23 5 9 9 11 9 4 4 4 11 8 6 11 28 25 27 25 18 14 18 22 23 24 23 25 23 25 24 28 24 16 21 25 23 25 29 33 38 35 35 37
10 3 7 3 10 4 2 13 5 12 7 8 1 7 10 14 17 19 27 30 22 23 21 19 23 23 27 27 23 25 25 27 27 24 26 29 31 38 42 43 38 34 34 28
12 6 1 9 2 23 14 8 7 7 5 2 7 7 8 7 7 10 12 16 25 26 27 24 23 26 26 21 27 30 33 39 33 33 37 46 41 45 46 36 34 32 34 23
10 8 8 5 12 2 10 6 10 9 7 9 5 7 2 10 7 10 6 5 13 21 21 20 21 24 21 27 34 33 36 42 38 36 38 39 43 44 33 34 33 30 29 26
4 9 5 3 6 2 1 8 8 9 4 5 6 7 6 5 9 16 1 16 25 18 11 13 24 24 21 25 24 27 31 26 26 33 36 41 44 40 30 26 28 28 28 29
10 5 6 16 13 7 1 4 4 12 7 5 8 9 6 3 13 10 6 20 19 18 14 16 17 17 19 17 14 16 18 25 33 38 43 46 46 37 33 28 28 30 30 33
14 8 13 12 13 7 4 5 5 9 7 8 8 7 11 10 9 10 13 17 12 13 14 19 22 21 22 12 10 17 24 32 38 42 46 47 36 31 30 30 29 31 33 33
9 7 2 6 8 4 6 5 7 6 9 8 8 14 13 17 20 10 10 17 11 6 8 17 17 19 23 14 13 20 26 33 37 42 47 41 32 27 28 32 32 31 33 34
6 2 4 12 7 8 6 14 12 7 8 11 13 3 6 25 18 11 15 16 9 3 14 14 12 19 21 13 15 19 26 32 39 40 42 35 30 28 31 33 34 32 32 36
7 8 6 1 7 6 10 10 3 7 4 14 8 13 18 11 28 19 24 13 7 5 14 12 15 16 13 15 20 24 27 35 44 35 37 27 31 29 30 30 32 34 39 40
9 8 5 3 7 3 8 7 10 14 4 2 6 13 35 34 27 18 16 11 6 6 14 11 12 13 15 22 23 27 27 39 34 32 34 24 30 29 27 28 33 31 36 41
9 9 7 7 3 6 5 5 3 5 4 3 12 17 30 20 21 12 15 12 1 10 15 10 11 12 20 31 28 24 29 37 29 34 31 23 33 30 29 27 29 32 36 39
11 13 9 4 7 12 10 6 4 10 5 11 25 31 34 31 7 13 20 10 4 10 9 11 9 9 20 29 29 31 31 27 25 29 30 26 29 29 27 26 27 29 32 35
7 8 8 4 4 12 11 9 10 8 12 13 30 45 48 19 22 26 24 11 5 6 7 7 6 8 19 25 32 41 32 18 22 22 27 28 26 29 24 23 23 29 32 31
9 10 5 6 4 5 20 10 10 15 20 23 28 46 49 26 32 30 19 7 4 5 5 5 6 5 13 24 30 42 35 23 22 21 21 24 24 29 24 24 20 23 27 29
1 11 10 15 11 7 34 4 18 35 31 40 40 41 46 46 32 23 15 4 2 3 6 8 7 5 11 24 29 40 31 19 18 24 22 21 25 24 27 28 28 26 25 28
5 7 6 5 6 11 27 18 35 31 26 41 39 35 41 35 29 23 9 2 8 6 8 12 9 5 14 18 30 36 31 18 23 22 22 19 23 19 22 26 27 30 26 25
4 2 7 4 8 4 14 31 33 36 34 41 40 33 31 30 29 18 7 5 6 5 9 12 8 5 10 20 30 31 32 18 21 22 20 21 23 22 22 23 23 25 25 23
6 11 8 11 24 14 25 36 37 39 42 40 42 45 38 32 26 16 2 3 5 7 11 9 11 9 9 21 24 24 27 17 15 18 20 19 19 23 23 24 22 22 23 23
Wind_Direction_500mb
360 43 302 276 144 212 225 150 117 248 1 70 39 34 24 55 101 154 230 234 164 195 254 247 308 270 287 355 222 225 92 305 273 290 292 250 256 270 278 283 289 296 295 291
10 312 278 149 310 105 105 53 359 18 75 87 10 33 316 62 66 288 256 236 162 230 192 195 242 244 115 9 15 338 242 318 307 280 286 262 271 278 282 285 284 284 284 279
155 257 312 99 110 155 110 99 187 123 129 82 69 25 360 12 26 1 0 220 190 188 179 164 134 52 165 14 348 316 235 285 311 301 278 277 289 291 289 284 282 287 292 294
267 296 48 86 162 109 53 328 324 157 120 148 28 194 11 334 43 32 28 75 148 178 186 159 152 333 323 329 329 258 314 322 298 312 308 303 314 305 293 286 279 300 315 309
267 347 37 68 294 140 128 112 90 58 86 93 3 74 315 347 16 3 14 52 129 155 185 337 304 352 326 320 321 306 309 331 314 322 314 310 309 304 301 308 322 329 329 322
294 338 41 174 66 42 80 83 50 52 75 42 316 108 333 4 315 347 37 69 97 109 135 131 311 348 354 341 333 353 329 326 317 316 319 321 316 314 323 332 335 332 326 321
341 22 332 26 43 18 61 56 6 17 21 194 320 63 344 346 3 89 77 91 110 116 97 67 41 6 350 7 343 344 347 336 328 319 318 330 335 340 342 338 331 320 310 306
65 4 360 333 47 139 33 101 138 147 153 245 356 48 314 357 49 83 107 107 105 90 82 67 61 60 59 51 35 32 21 12 10 354 352 353 352 346 339 332 325 316 312 310
124 271 308 336 17 19 33 46 188 102 11 65 307 92 21 9 46 79 90 87 73 78 92 89 69 54 41 22 14 19 14 18 13 11 10 6 359 353 350 343 342 346 341 343
189 111 60 283 294 38 95 150 32 14 113 112 332 107 182 261 317 330 56 100 84 91 85 72 50 32 25 23 23 13 13 15 10 7 7 359 353 352 352 0 358 4 12 15
130 104 291 2 19 292 15 27 58 113 108 147 167 269 151 200 284 301 228 69 77 99 79 60 42 31 20 14 7 8 16 16 17 7 3 3 2 0 3 8 17 21 22 21
350 117 95 128 240 7 56 148 126 114 288 52 127 269 207 204 287 294 252 109 104 114 97 57 31 19 11 7 2 11 18 12 15 11 8 7 5 8 11 18 24 24 22 14
179 22 43 346 354 5 25 84 109 108 97 184 125 253 142 88 268 218 163 133 107 101 76 36 20 22 16 6 2 9 11 16 14 10 5 2 4 15 28 29 24 22 21 20
118 117 152 183 209 150 236 164 118 101 108 173 205 167 231 211 240 179 127 137 113 69 30 26 14 10 12 358 350 2 5 8 7 1 0 1 14 20 19 19 18 21 20 22
89 116 152 251 250 124 44 307 156 146 156 135 197 171 203 186 208 154 160 152 120 81 35 16 4 8 14 0 351 1 6 7 5 4 4 12 15 19 26 27 27 25 24 22
38 108 123 16 322 24 54 8 105 96 116 73 109 257 142 189 190 220 183 166 141 53 16 3 2 8 14 20 4 6 9 10 7 5 11 14 18 25 30 28 29 28 26 18
75 113 70 337 350 87 22 334 38 99 83 133 154 219 150 174 209 212 172 175 168 18 360 358 358 8 17 9 8 6 10 14 4 6 13 28 21 28 30 33 31 33 34 29
114 90 73 171 26 355 263 39 89 108 32 279 121 154 174 191 196 188 190 198 175 351 354 353 360 10 17 13 11 3 19 8 12 16 19 32 28 28 33 35 35 37 30 29
93 110 75 114 115 296 157 229 230 117 270 205 142 143 179 171 152 191 211 188 285 350 350 354 359 6 17 18 14 15 10 5 28 27 24 34 24 26 33 36 37 33 31 29
66 73 107 99 132 205 238 184 93 104 293 206 174 179 173 159 155 235 187 195 286 336 345 360 359 12 24 25 17 7 8 9 33 29 26 24 22 21 27 30 27 29 30 31
35 21 117 114 163 283 238 185 117 94 240 163 199 189 177 187 216 180 176 190 249 314 354 358 342 12 32 22 10 4 6 19 14 4 16 9 13 17 22 20 27 32 31 28
155 130 157 89 110 262 171 121 160 174 159 178 192 197 197 208 159 153 165 179 239 316 7 352 321 348 22 16 11 10 11 23 16 12 359 9 22 24 30 30 30 26 27 29
76 174 182 174 210 256 177 188 177 168 166 176 180 183 186 162 159 161 160 174 329 330 3 356 290 309 17 16 11 9 13 25 15 11 25 34 23 36 42 44 40 33 32 34
319 147 117 109 258 218 199 195 172 179 182 182 189 179 174 166 167 165 161 1 359 352 354 358 302 306 14 6 4 6 12 12 5 16 32 34 27 44 39 34 35 36 39 38
202 114 136 301 287 159 181 191 182 181 189 184 183 181 186 188 178 176 145 335 346 350 346 356 338 304 339 2 2 2 9 9 10 27 34 39 38 49 39 30 35 31 30 38
188 175 151 215 207 179 209 189 191 192 188 189 186 185 190 192 181 167 194 328 357 336 339 336 336 297 321 3 354 356 8 12 20 37 45 44 46 36 37 37 35 33 35 39
Wind_Speed_850mb
9 12 8 16 3 14 7 7 4 3 10 19 11 15 21 23 14 11 22 27 16 18 8 9 14 15 10 15 8 12 3 2 6 12 19 20 16 26 35 35 37 40 45 44
15 10 17 1 9 6 6 7 9 11 22 18 3 12 6 15 7 2 23 23 14 10 17 16 14 15 6 19 22 6 14 14 15 24 23 21 18 28 31 36 39 41 42 43
7 21 11 3 9 9 3 10 2 11 9 5 10 21 20 14 15 9 15 7 21 32 28 19 12 4 4 11 20 7 26 23 20 26 25 22 26 32 36 41 37 30 27 28
9 17 4 13 7 8 12 13 6 7 10 5 5 2 14 20 22 26 43 20 27 44 20 8 4 11 20 17 21 3 10 27 26 25 25 25 30 36 38 31 24 27 33 34
14 10 6 17 2 6 7 3 27 10 12 13 17 11 15 14 21 16 39 35 19 15 12 6 4 13 13 23 20 22 29 26 22 26 28 29 30 39 49 47 40 43 35 40
8 3 10 4 5 8 5 9 16 9 5 11 12 8 11 11 9 6 15 31 22 19 13 5 7 13 18 22 20 20 16 21 25 29 35 38 40 42 39 32 29 33 39 42
13 11 13 7 12 16 17 15 7 10 11 6 11 14 8 13 11 3 13 27 30 25 18 18 14 7 10 19 20 25 19 24 23 25 30 26 28 28 30 35 39 41 44 46
9 14 15 23 5 9 9 11 9 4 4 4 11 8 6 11 28 25 27 25 18 14 18 22 23 24 23 25 23 25 24 28 24 16 21 25 23 25 29 33 38 35 35 37
10 3 7 3 10 4 2 13 5 12 7 8 1 7 10 14 17 19 27 30 22 23 21 19 23 23 27 27 23 25 25 27 27 24 26 29 31 38 42 43 38 34 34 28
12 6 1 9 2 23 14 8 7 7 5 2 7 7 8 7 7 10 12 16 25 26 27 24 23 26 26 21 27 30 33 39 33 33 37 46 41 45 46 36 34 32 34 23
10 8 8 5 12 2 10 6 10 9 7 9 5 7 2 10 7 10 6 5 13 21 21 20 21 24 21 27 34 33 36 42 38 36 38 39 43 44 33 34 33 30 29 26
4 9 5 3 6 2 1 8 8 9 4 5 6 7 6 5 9 16 1 16 25 18 11 13 24 24 21 25 24 27 31 26 26 33 36 41 44 40 30 26 28 28 28 29
10 5 6 16 13 7 1 4 4 12 7 5 8 9 6 3 13 10 6 20 19 18 14 16 17 17 19 17 14 16 18 25 33 38 43 46 46 37 33 28 28 30 30 33
14 8 13 12 13 7 4 5 5 9 7 8 8 7 11 10 9 10 13 17 12 13 14 19 22 21 22 12 10 17 24 32 38 42 46 47 36 31 30 30 29 31 33 33
9 7 2 6 8 4 6 5 7 6 9 8 8 14 13 17 20 10 10 17 11 6 8 17 17 19 23 14 13 20 26 33 37 42 47 41 32 27 28 32 32 31 33 34
6 2 4 12 7 8 6 14 12 7 8 11 13 3 6 25 18 11 15 16 9 3 14 14 12 19 21 13 15 19 26 32 39 40 42 35 30 28 31 33 34 32 32 36
7 8 6 1 7 6 10 10 3 7 4 14 8 13 18 11 28 19 24 13 7 5 14 12 15 16 13 15 20 24 27 35 44 35 37 27 31 29 30 30 32 34 39 40
9 8 5 3 7 3 8 7 10 14 4 2 6 13 35 34 27 18 16 11 6 6 14 11 12 13 15 22 23 27 27 39 34 32 34 24 30 29 27 28 33 31 36 41
9 9 7 7 3 6 5 5 3 5 4 3 12 17 30 20 21 12 15 12 1 10 15 10 11 12 20 31 28 24 29 37 29 34 31 23 33 30 29 27 29 32 36 39
11 13 9 4 7 12 10 6 4 10 5 11 25 31 34 31 7 13 20 10 4 10 9 11 9 9 20 29 29 31 31 27 25 29 30 26 29 29 27 26 27 29 32 35
7 8 8 4 4 12 11 9 10 8 12 13 30 45 48 19 22 26 24 11 5 6 7 7 6 8 19 25 32 41 32 18 22 22 27 28 26 29 24 23 23 29 32 31
9 10 5 6 4 5 20 10 10 15 20 23 28 46 49 26 32 30 19 7 4 5 5 5 6 5 13 24 30 42 35 23 22 21 21 24 24 29 24 24 20 23 27 29
1 11 10 15 11 7 34 4 18 35 31 40 40 41 46 46 32 23 15 4 2 3 6 8 7 5 11 24 29 40 31 19 18 24 22 21 25 24 27 28 28 26 25 28
5 7 6 5 6 11 27 18 35 31 26 41 39 35 41 35 29 23 9 2 8 6 8 12 9 5 14 18 30 36 31 18 23 22 22 19 23 19 22 26 27 30 26 25
4 2 7 4 8 4 14 31 33 36 34 41 40 33 31 30 29 18 7 5 6 5 9 12 8 5 10 20 30 31 32 18 21 22 20 21 23 22 22 23 23 25 25 23
6 11 8 11 24 14 25 36 37 39 42 40 42 45 38 32 26 16 2 3 5 7 11 9 11 9 9 21 24 24 27 17 15 18 20 19 19 23 23 24 22 22 23 23
Wind_Direction_850mb
360 43 302 276 144 212 225 150 117 248 1 70 39 34 24 55 101 154 230 234 164 195 254 247 308 270 287 355 222 225 92 305 273 290 292 250 256 270 278 283 289 296 295 291
10 312 278 149 310 105 105 53 359 18 75 87 10 33 316 62 66 288 256 236 162 230 192 195 242 244 115 9 15 338 242 318 307 280 286 262 271 278 282 285 284 284 284 279
155 257 312 99 110 155 110 99 187 123 129 82 69 25 360 12 26 1 0 220 190 188 179 164 134 52 165 14 348 316 235 285 311 301 278 277 289 291 289 284 282 287 292 294
267 296 48 86 162 109 53 328 324 157 120 148 28 194 11 334 43 32 28 75 148 178 186 159 152 333 323 329 329 258 314 322 298 312 308 303 314 305 293 286 279 300 315 309
267 347 37 68 294 140 128 112 90 58 86 93 3 74 315 347 16 3 14 52 129 155 185 337 304 352 326 320 321 306 309 331 314 322 314 310 309 304 301 308 322 329 329 322
294 338 41 174 66 42 80 83 50 52 75 42 316 108 333 4 315 347 37 69 97 109 135 131 311 348 354 341 333 353 329 326 317 316 319 321 316 314 323 332 335 332 326 321
341 22 332 26 43 18 61 56 6 17 21 194 320 63 344 346 3 89 77 91 110 116 97 67 41 6 350 7 343 344 347 336 328 319 318 330 335 340 342 338 331 320 310 306
65 4 360 333 47 139 33 101 138 147 153 245 356 48 314 357 49 83 107 107 105 90 82 67 61 60 59 51 35 32 21 12 10 354 352 353 352 346 339 332 325 316 312 310
124 271 308 336 17 19 33 46 188 102 11 65 307 92 21 9 46 79 90 87 73 78 92 89 69 54 41 22 14 19 14 18 13 11 10 6 359 353 350 343 342 346 341 343
189 111 60 283 294 38 95 150 32 14 113 112 332 107 182 261 317 330 56 100 84 91 85 72 50 32 25 23 23 13 13 15 10 7 7 359 353 352 352 0 358 4 12 15
130 104 291 2 19 292 15 27 58 113 108 147 167 269 151 200 284 301 228 69 77 99 79 60 42 31 20 14 7 8 16 16 17 7 3 3 2 0 3 8 17 21 22 21
350 117 95 128 240 7 56 148 126 114 288 52 127 269 207 204 287 294 252 109 104 114 97 57 31 19 11 7 2 11 18 12 15 11 8 7 5 8 11 18 24 24 22 14
179 22 43 346 354 5 25 84 109 108 97 184 125 253 142 88 268 218 163 133 107 101 76 36 20 22 16 6 2 9 11 16 14 10 5 2 4 15 28 29 24 22 21 20
118 117 152 183 209 150 236 164 118 101 108 173 205 167 231 211 240 179 127 137 113 69 30 26 14 10 12 358 350 2 5 8 7 1 0 1 14 20 19 19 18 21 20 22
89 116 152 251 250 124 44 307 156 146 156 135 197 171 203 186 208 154 160 152 120 81 35 16 4 8 14 0 351 1 6 7 5 4 4 12 15 19 26 27 27 25 24 22
38 108 123 16 322 24 54 8 105 96 116 73 109 257 142 189 190 220 183 166 141 53 16 3 2 8 14 20 4 6 9 10 7 5 11 14 18 25 30 28 29 28 26 18
75 113 70 337 350 87 22 334 38 99 83 133 154 219 150 174 209 212 172 175 168 18 360 358 358 8 17 9 8 6 10 14 4 6 13 28 21 28 30 33 31 33 34 29
114 90 73 171 26 355 263 39 89 108 32 279 121 154 174 191 196 188 190 198 175 351 354 353 360 10 17 13 11 3 19 8 12 16 19 32 28 28 33 35 35 37 30 29
93 110 75 114 115 296 157 229 230 117 270 205 142 143 179 171 152 191 211 188 285 350 350 354 359 6 17 18 14 15 10 5 28 27 24 34 24 26 33 36 37 33 31 29
66 73 107 99 132 205 238 184 93 104 293 206 174 179 173 159 155 235 187 195 286 336 345 360 359 12 24 25 17 7 8 9 33 29 26 24 22 21 27 30 27 29 30 31
35 21 117 114 163 283 238 185 117 94 240 163 199 189 177 187 216 180 176 190 249 314 354 358 342 12 32 22 10 4 6 19 14 4 16 9 13 17 22 20 27 32 31 28
155 130 157 89 110 262 171 121 160 174 159 178 192 197 197 208 159 153 165 179 239 316 7 352 321 348 22 16 11 10 11 23 16 12 359 9 22 24 30 30 30 26 27 29
76 174 182 174 210 256 177 188 177 168 166 176 180 183 186 162 159 161 160 174 329 330 3 356 290 309 17 16 11 9 13 25 15 11 25 34 23 36 42 44 40 33 32 34
319 147 117 109 258 218 199 195 172 179 182 182 189 179 174 166 167 165 161 1 359 352 354 358 302 306 14 6 4 6 12 12 5 16 32 34 27 44 39 34 35 36 39 38
202 114 136 301 287 159 181 191 182 181 189 184 183 181 186 188 178 176 145 335 346 350 346 356 338 304 339 2 2 2 9 9 10 27 34 39 38 49 39 30 35 31 30 38
188 175 151 215 207 179 209 189 191 192 188 189 186 185 190 192 181 167 194 328 357 336 339 336 336 297 321 3 354 356 8 12 20 37 45 44 46 36 37 37 35 33 35 39